OpenBCM V1.08-5-g2f4a (Linux)

Packet Radio Mailbox

IZ3LSV

[San Dona' di P. JN]

 Login: GUEST





  
I0OJJ  > KEPS     23.08.25 02:40l 315 Lines 15016 Bytes #122 (0) @ AMSAT
BID : ORB25235.1
Read: GUEST
Subj: 2Line Orbital Elements 25235.AMSAT
Path: IZ3LSV<IK6IHL<IK7NXU<HB9ON<HB9ON<PI8ZTM<PI8LAP<VE2PKT<PY2BIL<LU9DCE<
      EA2RCF<I0OJJ
Sent: 250823/0025z @:I0OJJ.ITA.EU [Rome] obcm1.08-10-g596e
From: I0OJJ @ I0OJJ.ITA.EU (Gustavo)
To:   KEPS @ AMSAT
X-Info: This message was generated automatically


QST de KM1P

AMSAT Orbital Elements for Amateur Satellites in TLE Format
From Orbital Analysis Auxilliary Summer Office
New England Sci-Tech STEM Education Center
Narragansett RI August 23, 2025
To all radio amateurs


These element sets describe the orbits of various satellites 
in use by the amateur radio community. For details see:
www.amsat.org/keplerian-elements-formats/

A daily update of element sets is available at:
www.amsat.org/tle/daily-bulletin.txt
or without bulletin text:
www.amsat.org/tle/dailytle.txt


AO-07
1 07530U 74089B   25232.94459241 -.00000025  00000-0  13395-3 0  9997
2 07530 101.9967 237.9850 0012163 346.0531  82.2983 12.53690906322896
UO-11
1 14781U 84021B   25232.88590917  .00001157  00000-0  12693-3 0  9995
2 14781  97.7610 197.8560 0009425  96.4189 263.8102 14.89567836212404
AO-27
1 22825U 93061C   25234.13405533  .00000078  00000-0  46917-4 0  9994
2 22825  98.7312 296.0368 0007310 255.3146 104.7226 14.30819389664231
FO-29
1 24278U 96046B   25234.09678967 -.00000024  00000-0  98442-5 0  9995
2 24278  98.5638 118.2840 0350359 151.9709 210.0795 13.53251757432715
NOAA-15
1 25338U 98030A   25231.77009435  .00000153  00000-0  80310-4 0  9994
2 25338  98.5336 255.1809 0010950 145.7140 214.4750 14.27013376418307
GO-32
1 25397U 98043D   25232.90705691  .00000059  00000-0  45512-4 0  9996
2 25397  98.9771 213.5579 0001744  40.0236 320.1070 14.24330630408586
ISS
1 25544U 98067A   25232.79082775  .00012706  00000-0  22974-3 0  9992
2 25544  51.6357 346.8656 0003381 246.2794 113.7840 15.50060649525187
NO-44
1 26931U 01043C   25234.48300854  .00000088  00000-0  64093-4 0  9999
2 26931  67.0511 296.7586 0006808 276.0515  83.9811 14.31765027247687
SO-50
1 27607U 02058C   25232.70277683  .00000937  00000-0  13299-3 0  9997
2 27607  64.5544 337.8749 0063927 318.6272  41.0000 14.81797708219918
CO-55
1 27844U 03031E   25232.91067114  .00000271  00000-0  13688-3 0  9994
2 27844  98.6780 240.2570 0009226 345.0740  15.0165 14.24044270148938
CO-57
1 27848U 03031J   25234.50982950  .00000206  00000-0  11016-3 0  9990
2 27848  98.6810 241.7855 0009418 358.2132   1.9011 14.23372971148881
RS-22
1 27939U 03042A   25232.92692609  .00001010  00000-0  16726-3 0  9993
2 27939  98.3345  44.1587 0012239 136.4979  28.3458 14.72504250171345
CO-58
1 28895U 05043F   25234.38387674  .00001331  00000-0  22382-3 0  9994
2 28895  98.2597  19.7054 0015615  74.9066 285.3867 14.71232626 57791
CO-65
1 32785U 08021C   25232.88934694  .00004724  00000-0  33660-3 0  9999
2 32785  97.7897 204.6422 0008726 338.0593  22.0258 15.05062549939959
CO-66
1 32791U 08021J   25234.46077819  .00010122  00000-0  46892-3 0  9999
2 32791  97.7328 216.2532 0001104 260.5044  99.6065 15.20301099941715
RS-30
1 32953U 08025A   25234.60357834  .00000008  00000-0 -14668-4 0  9997
2 32953  82.5058 181.1489 0017914 243.4500 116.4743 12.43167386782592
NOAA-19
1 33591U 09005A   25232.83565882  .00000078  00000-0  65723-4 0  9996
2 33591  98.9924 297.9293 0014285 155.9400 204.2442 14.13397458852052
SRMSAT
1 37841U 11058D   25234.61254738  .00000383  00000-0  64328-4 0  9991
2 37841  19.9725  66.5364 0011741 159.1881 246.2356 14.11454709715585
ZACUBE-1
1 39417U 13066B   25232.77830642  .00003866  00000-0  33280-3 0  9993
2 39417  97.7858 189.4571 0043939 167.9113 192.3174 14.97222927635715
Delfi-N3xt
1 39428U 13066N   25232.81396104  .00005070  00000-0  50804-3 0  9990
2 39428  97.8300 149.6803 0085132 121.8050 239.1493 14.89107122629825
GOMX-1
1 39430U 13066Q   25234.58888639  .00001212  00000-0  19445-3 0  9998
2 39430  97.6759  88.6955 0130960 316.0528  43.0321 14.67893123626088
LO-74
1 39440U 13066AA  25232.79459717  .00004054  00000-0  40793-3 0  9998
2 39440  97.8519 176.8877 0059809 302.6956  56.8503 14.90442184632192
AO-73
1 39444U 13066AE  25232.86008903  .00006045  00000-0  44357-3 0  9999
2 39444  97.7845 195.1109 0042355 140.6508 219.7807 15.03137628634446
DTUSAT-2
1 40030U 14033W   25232.91717449  .00005764  00000-0  36760-3 0  9991
2 40030  98.0610 208.3008 0009621 163.0607 197.0943 15.09102358607308
EO-80
1 40032U 14033Y   25232.93377636  .00006770  00000-0  42989-3 0  9993
2 40032  98.0493 207.8719 0010418 112.1791 248.0543 15.09180673607283
LILACSAT-2
1 40908U 15049K   25234.56994358  .00009362  00000-0  23309-3 0  9995
2 40908  97.5040 256.7741 0007061 247.1279 112.9222 15.40461505549611
IO-86
1 40931U 15052B   25151.18580175  .00001241  00000-0  78118-4 0  9996
2 40931   6.0006  24.0987 0012733 338.8432  21.1169 14.78805930523159
Horyu-4
1 41340U 16012D   25234.57538395  .00021164  00000-0  51131-3 0  9991
2 41340  30.9974 353.2590 0007253 109.1672 250.9760 15.39893131524199
Lapan A3
1 41603U 16040E   25234.59716288  .00002874  00000-0  10034-3 0  9999
2 41603  97.1398 236.3308 0011169  15.7787 344.3800 15.30317746509105
CAS-2T
1 41847U 16066G   25234.15265381  .00000509  00000-0  82481-4 0  9991
2 41847  98.4160 307.9642 0344627 316.0462  41.3783 14.43661317461635
CAS-4B
1 42759U 17034B   25234.46785451  .00112834  00000-0  72266-3 0  9993
2 42759  43.0015 238.1588 0020405  91.6854 268.6353 15.74913904454202
CAS-4A
1 42761U 17034D   25234.42217363  .00139293  00000-0  80045-3 0  9996
2 42761  43.0049 234.5132 0021132  96.8926 263.4348 15.77253720454227
TechnoSat
1 42829U 17042E   25234.52998043  .00002583  00000-0  19998-3 0  9992
2 42829  97.3991  39.7304 0018208  35.7676 324.4765 15.02155011441825
AO-91
1 43017U 17073E   25234.57897017  .00005880  00000-0  29804-3 0  9990
2 43017  97.5143 103.4922 0167743 274.3429  83.8648 15.05865008420344
S-Net D
1 43186U 18014G   25234.28292834  .00004549  00000-0  26523-3 0  9993
2 43186  97.5537 136.4362 0008222 343.3240  16.7719 15.12449597413510
S-Net B
1 43187U 18014H   25234.55393599  .00004085  00000-0  23870-3 0  9991
2 43187  97.5543 136.6798 0008710 336.5726  23.5107 15.12430714413550
S-Net A
1 43188U 18014J   25234.54769249  .00004343  00000-0  25334-3 0  9994
2 43188  97.5551 136.8336 0008634 337.4456  22.6394 15.12457174413552
S-Net C
1 43189U 18014K   25234.42419563  .00004151  00000-0  24243-3 0  9998
2 43189  97.5568 136.7381 0009894 328.2877  31.7756 15.12426790412084
Ten-Koh
1 43677U 18084G   25232.87275203  .00001970  00000-0  15992-3 0  9992
2 43677  98.0832  47.9918 0007639  36.1238 324.0500 15.00867727371081
PO-101
1 43678U 18084H   25234.57632455  .00002177  00000-0  18667-3 0  9990
2 43678  98.1071  53.5547 0009134  52.1056 308.0991 14.98616837371465
QO-100
1 43700U 18090A   25234.53735542  .00000000  00000-0  00000-0 0  9992
2 43700   0.0241 135.2495 0001007  32.4093  22.6888  1.00268655 24688
MinXSS-2
1 43758U 18099A   25232.75600996  .00015669  00000-0  57987-3 0  9996
2 43758  97.4972 299.1031 0010089 257.6326 102.3784 15.27721089367981
AO-95
1 43770U 18099N   25232.90536125  .00008743  00000-0  42809-3 0  9991
2 43770  97.4865 290.2230 0009151 326.5325  33.5330 15.18376664367529
SNUSat 2
1 43782U 18099AA  25232.59686309  .00006543  00000-0  34835-3 0  9995
2 43782  97.4549 286.0721 0010193 261.8259  98.1817 15.15518189367405
SnugLite
1 43784U 18099AC  25234.56682295  .00007585  00000-0  36833-3 0  9993
2 43784  97.4357 287.7263 0002127 236.4428 123.6604 15.18737460367863
ITASat 1
1 43786U 18099AE  25234.60204110  .00004392  00000-0  24685-3 0  9991
2 43786  97.4511 287.3258 0012597 314.6659  45.3545 15.13743939367658
EAGLET 1
1 43790U 18099AJ  25234.60423928  .00002833  00000-0  18003-3 0  9991
2 43790  97.4708 287.0284 0010284 298.9109  61.1088 15.09593715367234
ESEO
1 43792U 18099AL  25233.71457975  .00001110  00000-0  87078-4 0  9999
2 43792  97.4435 278.4337 0009710 273.9696  86.0420 15.02852452366809
JO-97
1 43803U 18099AX  25234.10984317  .00009710  00000-0  42429-3 0  9995
2 43803  97.4610 292.5780 0006161 238.7963 121.2670 15.22293081367954
Suomi 100
1 43804U 18099AY  25234.11632766  .00007902  00000-0  37380-3 0  9996
2 43804  97.4673 291.6593 0010763 247.2503 112.7595 15.19593645367860
ISAT
1 43879U 18111D   25232.71201697  .00021436  00000-0  68493-3 0  9999
2 43879  97.5894 148.8029 0005768 314.9686  45.1087 15.32464161364731
UWE-4
1 43880U 18111E   25232.69854209  .00015582  00000-0  57505-3 0  9998
2 43880  97.5838 146.7330 0009661 327.1964  32.8673 15.27819350364635
Sparrow
1 43881U 18111F   25232.76290733  .00022289  00000-0  68130-3 0  9991
2 43881  97.6049 152.0269 0005770   9.2214 350.9132 15.33871629364846
Prox-1
1 44339U 19036A   25234.34971862  .00008722  00000-0  10595-2 0  9999
2 44339  23.9968 296.7507 0007023 185.8412 174.2004 14.81285333328963
Taurus 1
1 44530U 19059C   25234.56585455  .00005002  00000-0  90902-3 0  9999
2 44530  98.6140  17.5393 0009921 162.1833 197.9719 14.66606246314786
Duchifat 3
1 44854U 19089C   25234.40232740  .00048881  00000-0  75480-3 0  9996
2 44854  36.9388 243.7021 0006764 203.4482 156.5969 15.53083087314479
TO-108
1 44881U 19093C   25234.57899455  .00000693  00000-0  85929-4 0  9990
2 44881  97.7882 308.6716 0013484 354.8461   5.2613 14.85730250307068
FloripaSat 1
1 44885U 19093G   25234.58627968  .00004290  00000-0  35740-3 0  9995
2 44885  97.8144 322.3639 0008266 321.5842  38.4791 14.99148412307835
RS-44
1 44909U 19096E   25232.79347447  .00000012  00000-0 -22173-5 0  9994
2 44909  82.5242 179.3058 0218298 126.5306 235.6115 12.79742666263922
UPMSat 2
1 46276U 20061E   25232.78559593  .00115142  00000-0  59756-3 0  9998
2 46276  97.2362 310.1281 0002029 207.8090 152.3070 15.80682542276825
